Location: Wildcat Hills Observatory
(41.6350°N, 103.6812°W)
Time: 15:17:56
(UTC-07:00)

Daily predictions for brighter satellites

Satellite Brightness Start Highest point End
(mag) Time Altitude Azimuth Time Altitude Azimuth Time Altitude Azimuth
CZ-3A R/B 3.2 16:26:13 10° WSW 16:30:08 67° NNW 16:49:04 10° NE
Timation 2 Rocket 4.4 16:45:06 10° NNW 16:51:44 49° ENE 16:58:21 10° SE
CZ-2C R/B 3.8 16:49:11 10° NNE 16:53:39 85° WNW 16:58:11 10° SSW
CZ-3B DEB 2.1 16:51:15 10° WSW 16:54:34 69° NW 17:02:58 10° NE
YAOGAN 1 3.0 16:52:41 10° SE 16:56:41 38° ENE 17:00:42 10° N
CRYOSAT 2 4.4 16:52:53 10° N 16:57:47 70° E 17:02:39 10° S
Cosmos 2082 Rocket 2.5 16:53:13 10° NNW 16:58:38 44° ENE 17:04:02 10° SE
Cosmos 1500 3.6 16:55:42 10° N 16:59:22 41° ENE 17:03:02 10° SSE
PAYLOAD A 3.9 16:56:08 10° SSE 17:00:59 78° ENE 17:06:05 10° N
Cosmos 1743 3.9 16:58:53 10° NNE 17:01:57 22° ENE 17:05:00 10° SE
USA 234 3.5 16:57:08 10° NE 17:03:36 59° SE 17:10:01 10° SSW
Intercosmos 25 4.2 17:03:48 10° NNE 17:06:18 21° ENE 17:08:59 10° SE
CZ-2C R/B 2.6 17:01:23 10° SSE 17:06:19 59° ENE 17:11:25 10° N
BREEZE M DEB (TANK) 3.8 16:58:57 10° SW 17:10:01 53° SSE 17:13:17 12° ENE
Cosmos 1455 Rocket 3.5 17:08:16 10° NNW 17:12:40 69° W 17:17:05 10° S
Nadezhda 3 Rocket 4.2 17:08:24 10° SSE 17:14:20 49° E 17:20:21 10° NNE
NOSS 3-4 (A) 4.2 17:10:29 10° NNW 17:17:03 42° NE 17:23:58 10° ESE
NOSS 3-4 (C) 4.2 17:10:35 10° NNW 17:17:09 42° NE 17:24:03 10° ESE
SL-8 R/B 4.3 17:13:10 10° W 17:17:46 46° NNW 17:21:46 13° NE
Delta 2 Rocket 4.4 17:14:45 10° WSW 17:17:55 32° S 17:21:23 10° ESE
Cosmos 1484 Rocket 3.5 17:17:44 10° SE 17:20:57 28° ENE 17:24:09 10° NNE
Cosmos 2056 Rocket 4.4 17:21:08 10° SSE 17:25:45 30° E 17:29:42 13° NE
SJ-7 4.4 17:21:43 10° SSE 17:25:57 78° ENE 17:30:12 10° N
BREEZE M DEB (TANK) 3.4 17:23:05 10° NW 17:26:12 41° NNE 17:34:19 10° E
SMAP 3.1 17:25:24 10° SSE 17:30:02 84° WSW 17:34:44 10° NNW
Cosmos 1975 3.5 17:28:35 10° NNW 17:32:35 58° W 17:36:32 10° S
Cosmos 1809 Rocket 4.4 17:27:34 10° N 17:33:45 84° E 17:39:50 10° S
SL-24 DEB 4.2 17:30:47 10° N 17:35:31 76° E 17:40:11 10° S
Cosmos 2369 Rocket 3.8 17:34:16 10° SE 17:36:50 14° E 17:36:50 14° E
CORIOLIS 4.2 17:31:43 10° SSE 17:37:08 85° WSW 17:42:33 10° NNW
Cosmos 1624 Rocket 4.4 17:33:38 10° S 17:38:29 42° ESE 17:42:26 15° NE
Tiangong 1 0.9 17:36:40 10° W 17:39:42 72° N 17:41:00 30° ENE
Cosmos 1726 Rocket 4.5 17:37:01 10° NNE 17:40:49 27° ENE 17:44:36 10° SE
Okean 1-7 Rocket 3.5 17:36:53 10° S 17:41:21 68° E 17:45:47 10° NNE
FALCON 9 R/B 4.4 17:10:07 10° WSW 17:42:09 62° S 17:49:07 15° ESE
CZ-4 R/B 4.4 17:38:29 10° SSE 17:42:38 87° W 17:46:49 10° NNW
ISS -1.1 17:40:50 10° NW 17:42:46 14° N 17:43:28 14° NNE
CZ-4 R/B 2.8 17:39:44 10° S 17:43:40 42° W 17:47:36 10° NNW
Cosmos 1371 Rocket 4.1 17:39:12 10° S 17:44:27 60° ESE 17:49:17 12° NNE
Meteor 1-13 Rocket 4.2 17:39:43 10° S 17:45:26 85° E 17:51:19 10° N
Meteor 2-4 Rocket 3.8 17:40:28 10° SSE 17:45:35 47° E 17:50:42 10° NNE
COSMOS 2487 4.3 17:43:15 10° NW 17:46:33 35° WSW 17:49:50 10° S
SPOT 3 Rocket 4.4 17:47:35 10° S 17:52:37 52° W 17:57:40 10° NNW
Cosmos 1340 4.3 17:52:13 10° SE 17:53:52 19° SE 17:53:52 19° SE
MSX 4.0 17:49:38 10° S 17:55:23 78° WSW 18:01:10 10° NNW
Cosmos 1934 Rocket 4.0 17:50:43 10° N 17:56:51 56° E 18:03:01 10° SSE
Cosmos 1606 Rocket 3.7 17:56:08 10° N 18:00:31 51° E 18:04:52 10° SSE
NOSS 7 (H) 4.4 17:59:42 10° SSW 18:03:00 54° ESE 18:03:18 51° E
Cosmos 1535 Rocket 4.4 18:00:58 10° N 18:07:17 85° E 18:13:29 10° S
METEOR-M 4.4 18:03:46 10° SE 18:08:48 44° ENE 18:13:52 10° N
COSMO-SKYMED 1 2.5 18:05:16 13° NNE 18:09:07 89° WNW 18:13:28 10° SSW
Cosmos 1666 2.6 18:09:45 10° N 18:13:39 86° E 18:17:31 10° S
Cosmos 921 Rocket 4.3 18:10:14 10° SW 18:14:14 39° WNW 18:18:20 10° N
Cosmos 1452 Rocket 4.2 18:09:55 10° SSE 18:14:16 34° ESE 18:14:16 34° ESE
NOSS 2-1 (D) 4.4 18:10:58 10° WSW 18:14:37 42° NW 18:16:47 23° N
BREEZE-M R/B 4.4 18:05:19 10° W 18:15:00 51° NNW 18:17:19 31° NE
Cosmos 1190 Rocket 3.9 18:09:46 10° NNW 18:15:01 70° ENE 18:20:12 10° SSE
NOSS 2-1 (C) 4.4 18:11:36 10° WSW 18:15:19 43° NW 18:17:27 24° N
Cosmos 1025 Rocket 3.1 18:11:20 10° S 18:15:43 79° W 18:19:23 15° N
Cosmos 2278 Rocket 4.3 18:13:30 10° W 18:17:46 21° NW 18:22:03 10° N
GEOS 3 Rocket 3.9 18:17:19 40° ENE 18:17:55 42° NE 18:22:43 10° NNW
Cosmos 1821 Rocket 4.3 18:25:38 10° NNW 18:31:38 63° W 18:37:39 10° S
Cosmos 1833 Rocket 4.1 18:27:50 10° NW 18:33:01 38° WSW 18:38:09 10° S
Cosmos 1153 Rocket 4.5 18:29:15 10° N 18:35:17 53° ENE 18:41:14 10° SSE
Cosmos 2058 Rocket 4.4 18:32:05 10° N 18:39:37 20° SSE 18:40:59 10° S
Meteor 1-28 Rocket 3.7 18:41:28 58° WNW 18:41:29 58° WNW 18:45:12 10° SSW
Cosmos 2082 Rocket 4.3 18:37:46 10° NW 18:42:27 27° WSW 18:47:08 10° SSW
Cosmos 1605 Rocket 3.9 18:36:12 10° N 18:42:31 88° E 18:48:42 10° S
USA 234 3.9 18:43:35 29° NNE 18:46:29 47° NNW 18:52:39 10° W
Cosmos 407 Rocket 4.3 19:00:06 10° NNW 19:05:03 49° WSW 19:10:01 10° S
Cosmos 2369 Rocket 2.8 19:14:35 10° SSW 19:18:41 50° SW 19:18:41 50° SW
Cosmos 1727 Rocket 4.4 19:15:03 10° SSW 19:21:08 59° W 19:23:21 38° NNW
CZ-3B DEB 4.3 19:24:40 10° WNW 19:30:57 38° N 19:32:17 37° NNE
